North Bend, OR

4:57 AM PDT on May 24, 2017 (GMT -0700)
North Bend Municipal

Weather History for KOTH - September, 2013

Change the Weather History Date:

Tuesday, September 17, 2013

  Actual Average Record
Temperature  
Mean Temperature 61 °F 57 °F  
Max Temperature 64 °F 65 °F 89 °F (1913)
Min Temperature 57 °F 50 °F 38 °F (1908)
Degree Days  
Heating Degree Days 4 8  
Month to date heating degree days 35 116  
Since 1 July heating degree days 202 495  
Cooling Degree Days 0 0  
Month to date cooling degree days 1 0  
Year to date cooling degree days 13 1  
Growing Degree Days 10 (Base 50)    
Moisture  
Dew Point 58 °F    
Average Humidity 91    
Maximum Humidity 100    
Minimum Humidity 78    
Precipitation  
Precipitation 0.09 in 0.05 in 1.92 in (2004)
Month to date precipitation 0.56 0.71  
Year to date precipitation 18.49 37.95  
Sea Level Pressure  
Sea Level Pressure 29.98 in    
Wind  
Wind Speed 7 mph (NW)    
Max Wind Speed 16 mph    
Max Gust Speed -    
Visibility 10 miles    
Events      
T = Trace of Precipitation, MM = Missing Value Source: NWS Daily Summary

Daily Weather History Graph

Daily Weather History Graph

Search for Another Location

Airport or City:

Trip Planner

Search our weather history database for the weather conditions in past years. The results will help you decide how hot, cold, wet, or windy it might be!

Date:

Astronomy

Sep. 17, 2013 Rise Set
Actual Time 6:59 AM PDT 7:22 PM PDT
Civil Twilight 6:30 AM PDT 7:51 PM PDT
Nautical Twilight 5:56 AM PDT 8:25 PM PDT
Astronomical Twilight 5:21 AM PDT 8:59 PM PDT
Moon 6:14 PM PDT (9/17) 4:57 AM PDT (9/17)
Length of Visible Light 13h 20m
Length of Day
12h 23m
Waxing Gibbous, 96% of the Moon is Illuminated
Sep 17
Waxing Gibbous
Sep 19
Full
Sep 26
Last Quarter
Oct 4
New
Oct 11
First Quarter

Hourly Weather History & Observations

Time (PDT) Temp. Dew Point Humidity Pressure Visibility Wind Dir Wind Speed Gust Speed Precip Events Conditions
12:15 AM 59.0 °F 59.0 °F 100% 29.91 in 10.0 mi Calm Calm - N/A   Overcast
12:35 AM 59.0 °F 59.0 °F 100% 29.91 in 10.0 mi Calm Calm - N/A   Overcast
12:55 AM 59.0 °F 59.0 °F 100% 29.93 in 10.0 mi West 6.9 mph - N/A   Overcast
1:15 AM 59.0 °F 59.0 °F 100% 29.93 in 10.0 mi WNW 6.9 mph - N/A   Overcast
1:35 AM 59.0 °F 59.0 °F 100% 29.92 in 10.0 mi NNW 9.2 mph - N/A   Overcast
1:55 AM 59.0 °F 59.0 °F 100% 29.91 in 10.0 mi North 8.1 mph - N/A   Overcast
2:15 AM 60.8 °F 59.0 °F 94% 29.89 in 10.0 mi NNE 10.4 mph - N/A   Mostly Cloudy
2:35 AM 60.8 °F 59.0 °F 94% 29.90 in 10.0 mi North 5.8 mph - N/A   Mostly Cloudy
2:55 AM 60.8 °F 59.0 °F 94% 29.89 in 10.0 mi North 8.1 mph - N/A   Overcast
3:15 AM 60.8 °F 59.0 °F 94% 29.90 in 10.0 mi North 5.8 mph - N/A   Overcast
3:35 AM 60.8 °F 59.0 °F 94% 29.90 in 10.0 mi NNW 6.9 mph - N/A   Overcast
3:55 AM 60.8 °F 59.0 °F 94% 29.90 in 10.0 mi NNW 6.9 mph - N/A   Overcast
4:15 AM 60.8 °F 59.0 °F 94% 29.90 in 10.0 mi NNW 6.9 mph - N/A   Overcast
4:35 AM 59.0 °F 59.0 °F 100% 29.90 in 10.0 mi North 5.8 mph - N/A   Overcast
4:55 AM 59.0 °F 59.0 °F 100% 29.90 in 10.0 mi North 9.2 mph - N/A   Overcast
5:15 AM 59.0 °F 59.0 °F 100% 29.90 in 10.0 mi North 8.1 mph - N/A   Overcast
5:35 AM 59.0 °F 59.0 °F 100% 29.90 in 10.0 mi NNW 5.8 mph - N/A   Overcast
5:55 AM 59.0 °F 59.0 °F 100% 29.91 in 10.0 mi North 5.8 mph - N/A   Overcast
6:15 AM 59.0 °F 59.0 °F 100% 29.91 in 10.0 mi NNW 10.4 mph - N/A   Overcast
6:35 AM 59.0 °F 57.2 °F 94% 29.91 in 10.0 mi North 16.1 mph - N/A   Overcast
6:55 AM 59.0 °F 57.2 °F 94% 29.92 in 10.0 mi North 16.1 mph - N/A   Overcast
7:15 AM 57.2 °F 55.4 °F 94% 29.93 in 10.0 mi NNW 15.0 mph - N/A   Overcast
7:35 AM 57.2 °F 57.2 °F 100% 29.94 in 2.0 mi NNW 13.8 mph - 0.03 in   Overcast
7:55 AM 57.2 °F 55.4 °F 94% 29.93 in 2.0 mi North 10.4 mph - 0.05 in   Overcast
8:15 AM 57.2 °F 57.2 °F 100% 29.93 in 4.0 mi North 13.8 mph - 0.01 in   Mostly Cloudy
8:35 AM 57.2 °F 55.4 °F 94% 29.93 in 4.0 mi North 8.1 mph - 0.03 in   Mostly Cloudy
8:55 AM 57.2 °F 55.4 °F 94% 29.94 in 4.0 mi North 8.1 mph - 0.04 in   Overcast
9:15 AM 59.0 °F 57.2 °F 94% 29.94 in 10.0 mi North 6.9 mph - N/A   Overcast
9:35 AM 59.0 °F 57.2 °F 94% 29.94 in 10.0 mi North 4.6 mph - N/A   Overcast
9:55 AM 59.0 °F 57.2 °F 94% 29.95 in 10.0 mi Calm Calm - N/A   Mostly Cloudy
10:15 AM 59.0 °F 57.2 °F 94% 29.95 in 10.0 mi WNW 3.5 mph - N/A   Partly Cloudy
10:35 AM 60.8 °F 59.0 °F 94% 29.96 in 10.0 mi WNW 5.8 mph - N/A   Clear
10:55 AM 60.8 °F 59.0 °F 94% 29.96 in 10.0 mi West 3.5 mph - N/A   Mostly Cloudy
11:15 AM 62.6 °F 57.2 °F 82% 29.96 in 10.0 mi NW 3.5 mph - N/A   Mostly Cloudy
11:35 AM 62.6 °F 57.2 °F 82% 29.97 in 10.0 mi NNW 3.5 mph - N/A   Scattered Clouds
11:55 AM 62.6 °F 59.0 °F 88% 29.97 in 10.0 mi WNW 8.1 mph - N/A   Mostly Cloudy
12:15 PM 64.4 °F 59.0 °F 83% 29.98 in 10.0 mi WNW 6.9 mph - N/A   Scattered Clouds
12:35 PM 62.6 °F 57.2 °F 82% 29.98 in 10.0 mi West 8.1 mph - N/A   Partly Cloudy
12:55 PM 64.4 °F 59.0 °F 83% 29.98 in 10.0 mi West 10.4 mph - N/A   Clear
1:15 PM 62.6 °F 57.2 °F 82% 29.99 in 10.0 mi West 9.2 mph - N/A   Mostly Cloudy
1:35 PM 62.6 °F 57.2 °F 82% 29.99 in 10.0 mi West 9.2 mph - N/A   Scattered Clouds
1:55 PM 64.4 °F 57.2 °F 77% 29.99 in 10.0 mi West 10.4 mph - N/A   Clear
2:15 PM 62.6 °F 57.2 °F 82% 30.00 in 10.0 mi West 10.4 mph - N/A   Clear
2:35 PM 64.4 °F 57.2 °F 77% 30.00 in 10.0 mi West 11.5 mph - N/A   Clear
2:55 PM 64.4 °F 57.2 °F 77% 30.00 in 10.0 mi West 11.5 mph - N/A   Mostly Cloudy
3:15 PM 64.4 °F 57.2 °F 77% 30.01 in 10.0 mi West 10.4 mph - N/A   Overcast
3:35 PM 62.6 °F 57.2 °F 82% 30.01 in 10.0 mi West 9.2 mph - N/A   Overcast
3:55 PM 62.6 °F 57.2 °F 82% 30.01 in 10.0 mi West 9.2 mph - N/A   Mostly Cloudy
4:15 PM 64.4 °F 57.2 °F 77% 30.01 in 10.0 mi West 9.2 mph - N/A   Partly Cloudy
4:35 PM 64.4 °F 57.2 °F 77% 30.01 in 10.0 mi West 10.4 mph - N/A   Clear
4:55 PM 64.4 °F 57.2 °F 77% 30.02 in 10.0 mi West 10.4 mph - N/A   Clear
5:15 PM 64.4 °F 57.2 °F 77% 30.02 in 10.0 mi West 8.1 mph - N/A   Clear
5:35 PM 64.4 °F 57.2 °F 77% 30.02 in 10.0 mi West 8.1 mph - N/A   Clear
5:55 PM 64.4 °F 57.2 °F 77% 30.02 in 10.0 mi West 6.9 mph - N/A   Clear
6:15 PM 64.4 °F 57.2 °F 77% 30.02 in 10.0 mi West 8.1 mph - N/A   Partly Cloudy
6:35 PM 62.6 °F 57.2 °F 82% 30.02 in 10.0 mi West 5.8 mph - N/A   Partly Cloudy
6:55 PM 62.6 °F 57.2 °F 82% 30.03 in 10.0 mi West 4.6 mph - N/A   Clear
7:15 PM 60.8 °F 57.2 °F 88% 30.03 in 10.0 mi West 5.8 mph - N/A   Clear
7:35 PM 60.8 °F 57.2 °F 88% 30.03 in 10.0 mi WSW 3.5 mph - N/A   Clear
7:55 PM 60.8 °F 57.2 °F 88% 30.04 in 10.0 mi WSW 4.6 mph - N/A   Clear
8:15 PM 60.8 °F 57.2 °F 88% 30.05 in 10.0 mi West 3.5 mph - N/A   Clear
8:35 PM 60.8 °F 57.2 °F 88% 30.06 in 10.0 mi WSW 5.8 mph - N/A   Clear
8:55 PM 59.0 °F 57.2 °F 94% 30.06 in 10.0 mi Calm Calm - N/A   Clear
9:15 PM 57.2 °F 55.4 °F 94% 30.07 in 10.0 mi Calm Calm - N/A   Scattered Clouds
9:35 PM 59.0 °F 57.2 °F 94% 30.07 in 10.0 mi Calm Calm - N/A   Mostly Cloudy
9:55 PM 57.2 °F 57.2 °F 100% 30.07 in 10.0 mi Calm Calm - N/A   Overcast
10:15 PM 57.2 °F 57.2 °F 100% 30.07 in 10.0 mi South 3.5 mph - N/A   Overcast
10:35 PM 57.2 °F 57.2 °F 100% 30.07 in 10.0 mi Calm Calm - N/A   Mostly Cloudy
10:55 PM 57.2 °F 55.4 °F 94% 30.07 in 10.0 mi SE 3.5 mph - N/A   Mostly Cloudy
11:15 PM 57.2 °F 55.4 °F 94% 30.07 in 10.0 mi SE 3.5 mph - N/A   Mostly Cloudy
11:35 PM 57.2 °F 57.2 °F 100% 30.08 in 10.0 mi SE 4.6 mph - N/A   Mostly Cloudy
11:55 PM 57.2 °F 57.2 °F 100% 30.08 in 10.0 mi SE 4.6 mph - N/A   Mostly Cloudy